Track COSMOS 1477 now! 10-day predictions COSMOS 1477 is classified as:
1 14175U 83069E 21110.91130552 .00000003 00000-0 12680-3 0 9998 2 14175 74.0237 300.1097 0001912 128.3495 340.2884 12.50419476725178